Change the Weather History Date:

Thursday, January 23, 2014

  Actual Average Record
Temperature  
Mean Temperature 44 °F -  
Max Temperature 55 °F 59 °F 63 °F (2015)
Min Temperature 32 °F 42 °F 46 °F (2015)
Degree Days  
Heating Degree Days 22    
Moisture  
Dew Point 24 °F    
Average Humidity 53    
Maximum Humidity 92    
Minimum Humidity 25    
Precipitation  
Precipitation 0.00 in - - ()
Sea Level Pressure  
Sea Level Pressure 30.37 in    
Wind  
Wind Speed 5 mph (NNE)    
Max Wind Speed 14 mph    
Max Gust Speed 24 mph    
Visibility 10 miles    
Events      
Averages and records for this station are not official NWS values.
T = Trace of Precipitation, MM = Missing Value Source: NWS Daily Summary

Daily Weather History Graph

Daily Weather History Graph

Search for Another Location

Airport or City:

Trip Planner

Search our weather history database for the weather conditions in past years. The results will help you decide how hot, cold, wet, or windy it might be!

Date:

Astronomy

Jan. 23, 2014 Rise Set
Actual Time 6:44 AM CST 5:18 PM CST
Civil Twilight 6:18 AM CST 5:43 PM CST
Nautical Twilight 5:49 AM CST 6:12 PM CST
Astronomical Twilight 5:21 AM CST 6:41 PM CST
Moon No Moon Rise 10:51 AM CST (1/23)
Length of Visible Light 11h 24m
Length of Day
10h 33m
Waning Gibbous, 55% of the Moon is Illuminated
Jan 23
Waning Gibbous
Jan 23
Last Quarter
Jan 30
New
Feb 6
First Quarter
Feb 14
Full

Hourly Weather History & Observations

Time (CST) Temp. Windchill Dew Point Humidity Pressure Visibility Wind Dir Wind Speed Gust Speed Precip Events Conditions
12:56 AM 34.0 °F - 30.9 °F 89% 30.22 in 10.0 mi Calm Calm - N/A   Clear
1:56 AM 33.1 °F 30.0 °F 30.9 °F 92% 30.25 in 10.0 mi NNW 3.5 mph - N/A   Clear
2:56 AM 34.0 °F - 30.9 °F 89% 30.26 in 10.0 mi Calm Calm - N/A   Clear
3:56 AM 35.1 °F - 32.0 °F 89% 30.26 in 10.0 mi Calm Calm - N/A   Clear
4:56 AM 32.0 °F - 30.0 °F 92% 30.28 in 10.0 mi Calm Calm - N/A   Clear
5:56 AM 34.0 °F 31.0 °F 30.9 °F 89% 30.31 in 10.0 mi North 3.5 mph - N/A   Mostly Cloudy
6:56 AM 34.0 °F 29.8 °F 32.0 °F 92% 30.33 in 10.0 mi North 4.6 mph - N/A   Mostly Cloudy
7:56 AM 39.0 °F 32.3 °F 30.0 °F 70% 30.36 in 10.0 mi NNE 10.4 mph - N/A   Mostly Cloudy
8:56 AM 44.1 °F 37.7 °F 19.9 °F 38% 30.38 in 10.0 mi NE 12.7 mph - N/A   Mostly Cloudy
9:56 AM 46.0 °F 40.2 °F 18.0 °F 33% 30.41 in 10.0 mi NE 12.7 mph - N/A   Mostly Cloudy
10:56 AM 48.9 °F - 18.0 °F 29% 30.40 in 10.0 mi NE 9.2 mph - N/A   Mostly Cloudy
11:56 AM 52.0 °F - 18.0 °F 26% 30.38 in 10.0 mi ENE 8.1 mph - N/A   Mostly Cloudy
12:56 PM 53.1 °F - 19.9 °F 27% 30.36 in 10.0 mi East 8.1 mph - N/A   Mostly Cloudy
1:56 PM 52.0 °F - 21.0 °F 30% 30.35 in 10.0 mi ESE 4.6 mph - N/A   Mostly Cloudy
2:56 PM 55.0 °F - 19.9 °F 25% 30.36 in 10.0 mi North 5.8 mph - N/A   Mostly Cloudy
3:56 PM 54.0 °F - 21.0 °F 28% 30.37 in 10.0 mi North 5.8 mph - N/A   Mostly Cloudy
4:56 PM 50.0 °F - 23.0 °F 35% 30.38 in 10.0 mi NNE 5.8 mph - N/A   Mostly Cloudy
5:56 PM 45.0 °F 42.6 °F 28.0 °F 52% 30.40 in 10.0 mi NNE 4.6 mph - N/A   Mostly Cloudy
6:56 PM 45.0 °F 41.8 °F 25.0 °F 46% 30.42 in 10.0 mi North 5.8 mph - N/A   Mostly Cloudy
7:56 PM 44.1 °F 38.1 °F 21.9 °F 42% 30.44 in 10.0 mi North 11.5 mph - N/A   Mostly Cloudy
8:56 PM 43.0 °F 37.2 °F 19.9 °F 40% 30.45 in 10.0 mi North 10.4 mph - N/A   Scattered Clouds
9:56 PM 43.0 °F 36.8 °F 19.0 °F 38% 30.49 in 10.0 mi North 11.5 mph - N/A   Overcast
10:56 PM 43.0 °F 36.8 °F 18.0 °F 37% 30.50 in 10.0 mi North 11.5 mph 21.9 mph N/A   Overcast
11:56 PM 41.0 °F 33.5 °F 17.1 °F 38% 30.52 in 10.0 mi North 13.8 mph 24.2 mph N/A   Overcast